Location: Wildlife_Club
(35.6000°N, 81.4330°W)
Time: 20:30:46
(UTC-04:00)

Vanguard 2 Rocket - Pass Details

Date: 20 June 2019
Orbit: 554 x 3326 km, 32.9° (Epoch: 22 July)

Event Time Altitude Azimuth Distance (km) Brightness Sun altitude
Rises 22:32:36 0° 232° (SW) 3,736 10.1 -17.9°
Reaches altitude 10° 22:34:50 10° 226° (SW) 3,037 9.5 -18.2°
Maximum altitude 22:42:18 52° 152° (SSE) 1,983 8.2 -19.2°
Drops below altitude 10° 22:55:29 10° 82° (E) 5,209 10.5 -20.9°
Sets 23:00:35 0° 78° (ENE) 6,612 11.1 -21.5°
